Vancouver, British Columbia

4:12 AM PDT on May 20, 2018 (GMT -0700)
Vancouver International Airport

Weather History for CYVR - January, 2014

Change the Weather History Date:

Sunday, January 5, 2014

  Actual Average Record
Temperature  
Mean Temperature 32 °F -  
Max Temperature 40 °F 43 °F 53 °F (2001)
Min Temperature 25 °F 32 °F 15 °F (2004)
Degree Days  
Heating Degree Days 32    
Moisture  
Dew Point 30 °F    
Average Humidity 90    
Maximum Humidity 100    
Minimum Humidity 75    
Precipitation  
Precipitation 0.00 in 0.19 in - ()
Sea Level Pressure  
Sea Level Pressure 30.50 in    
Wind  
Wind Speed 4 mph ()    
Max Wind Speed 13 mph    
Max Gust Speed -    
Visibility 18.7 miles    
Events Fog    
Averages and records for this station are not official NWS values.
T = Trace of Precipitation, MM = Missing Value Source: Averaged Metar Reports

Daily Weather History Graph

Daily Weather History Graph

Search for Another Location

Airport or City:

Astronomy

Jan. 05, 2014 Rise Set
Actual Time 8:06 AM PST 4:29 PM PST
Civil Twilight 7:29 AM PST 5:06 PM PST
Nautical Twilight 6:49 AM PST 5:47 PM PST
Astronomical Twilight 6:11 AM PST 6:25 PM PST
Moon 10:22 AM PST (1/5) 10:35 PM PST (1/5)
Length of Visible Light 9h 36m
Length of Day
8h 22m
Waxing Crescent, 25% of the Moon is Illuminated
Jan 5
Waxing Crescent
Jan 7
First Quarter
Jan 15
Full
Jan 23
Last Quarter
Jan 30
New

Hourly Weather History & Observations

Time (PST) Temp. Windchill Dew Point Humidity Pressure Visibility Wind Dir Wind Speed Gust Speed Precip Events Conditions
12:00 AM 30.2 °F 26.7 °F 28.4 °F 93% 30.51 in 20.0 mi NNE 3.5 mph - N/A   Partly Cloudy
1:00 AM 30.2 °F - 28.4 °F 93% 30.52 in 20.0 mi East 2.3 mph - N/A   Clear
2:00 AM 30.2 °F 24.3 °F 28.4 °F 93% 30.53 in 20.0 mi East 5.8 mph - N/A   Clear
3:00 AM 28.4 °F 21.2 °F 26.6 °F 93% 30.54 in 20.0 mi East 6.9 mph - N/A   Clear
4:00 AM 28 °F - 27 °F 92% 30.53 in 19 mi NNE 3.5 mph - -  
4:00 AM 28.4 °F 24.6 °F 26.6 °F 93% 30.53 in 20.0 mi NNE 3.5 mph - N/A   Clear
5:00 AM 26.6 °F - 26.6 °F 100% 30.53 in 20.0 mi NNE 2.3 mph - N/A Fog Shallow Fog
6:00 AM 26.6 °F - 24.8 °F 93% 30.53 in 20.0 mi Calm Calm - N/A Fog Shallow Fog
7:00 AM 26.6 °F - 26.6 °F 100% 30.53 in 20.0 mi NNW 2.3 mph - N/A Fog Shallow Fog
8:00 AM 26.6 °F - 26.6 °F 100% 30.53 in 30.0 mi Calm Calm - N/A Fog Shallow Fog
9:00 AM 30.2 °F - 28.4 °F 93% 30.55 in 30.0 mi Variable 2.3 mph - N/A   Partly Cloudy
10:00 AM 33 °F - 31 °F 89% 30.56 in 28 mi ESE 3.5 mph - -   Mostly Cloudy
10:00 AM 33.8 °F 30.8 °F 30.2 °F 87% 30.56 in 30.0 mi ESE 3.5 mph - N/A   Partly Cloudy
11:00 AM 37.4 °F 34.9 °F 30.2 °F 75% 30.55 in 30.0 mi North 3.5 mph - N/A   Partly Cloudy
12:00 PM 39.2 °F 33.6 °F 33.8 °F 81% 30.53 in 30.0 mi West 8.1 mph - N/A   Partly Cloudy
1:00 PM 39.2 °F 31.6 °F 33.8 °F 81% 30.51 in 30.0 mi West 12.7 mph - N/A   Scattered Clouds
2:00 PM 39.2 °F 32.0 °F 33.8 °F 81% 30.50 in 30.0 mi WNW 11.5 mph - N/A   Scattered Clouds
3:00 PM 39.2 °F 32.5 °F 33.8 °F 81% 30.48 in 30.0 mi WNW 10.4 mph - N/A   Scattered Clouds
4:00 PM 37 °F - 33 °F 81% 30.48 in 28 mi WNW 9.2 mph - -   Scattered Clouds
4:00 PM 37.4 °F 30.8 °F 33.8 °F 87% 30.48 in 30.0 mi WNW 9.2 mph - N/A   Scattered Clouds
4:55 PM 35.6 °F 28.6 °F 33.8 °F 93% 30.46 in 30.0 mi WNW 9.2 mph - N/A   Mostly Cloudy
5:00 PM 35.6 °F 28.6 °F 33.8 °F 93% 30.46 in 30.0 mi WNW 9.2 mph - N/A   Mostly Cloudy
6:00 PM 35.6 °F 31.7 °F 32.0 °F 87% 30.45 in 20.0 mi NNW 4.6 mph - N/A   Mostly Cloudy
7:00 PM 33.8 °F 30.8 °F 30.2 °F 87% 30.44 in 20.0 mi North 3.5 mph - N/A   Mostly Cloudy
8:00 PM 33.8 °F 30.8 °F 32.0 °F 93% 30.44 in 20.0 mi NNE 3.5 mph - N/A   Partly Cloudy
9:00 PM 30.2 °F 26.7 °F 28.4 °F 93% 30.42 in 15.0 mi East 3.5 mph - N/A   Partly Cloudy
10:00 PM 31 °F - 30 °F 93% 30.42 in 15 mi East 2.3 mph - -   Clear
10:00 PM 32.0 °F - 30.2 °F 93% 30.42 in 15.0 mi East 2.3 mph - N/A   Partly Cloudy
11:00 PM 30.2 °F - 28.4 °F 93% 30.40 in 15.0 mi ESE 2.3 mph - N/A   Partly Cloudy